| time (UTC) | temp C | wind direction | speed KPH | gust KPH | rain 1hr cm | rain 24hr cm | rain mn cm | humidity % | barometer mb |
| 20260504001515 | 11 | 203 | 3.2 | 11.3 | 0.00 | 0.00 | 0.00 | 48 | 1012.8 |
| 20260504001036 | 12 | 203 | 3.2 | 9.7 | 0.00 | 0.00 | 0.00 | 48 | 1012.8 |
| 20260504000516 | 12 | 203 | 3.2 | 9.7 | 0.00 | 0.00 | 0.00 | 47 | 1012.8 |
| 20260504000016 | 12 | 225 | 3.2 | 9.7 | 0.00 | 0.00 | 0.00 | 47 | 1012.9 |
| 20260503235515 | 12 | 180 | 3.2 | 9.7 | 0.00 | 0.00 | 0.00 | 46 | 1013.0 |
| 20260503235015 | 12 | 180 | 3.2 | 14.5 | 0.00 | 0.00 | 0.00 | 46 | 1012.9 |
| 20260503234516 | 12 | 180 | 3.2 | 11.3 | 0.00 | 0.00 | 0.00 | 44 | 1013.0 |
| 20260503234016 | 12 | 203 | 4.8 | 12.9 | 0.00 | 0.00 | 0.00 | 45 | 1012.8 |
| 20260503233516 | 12 | 180 | 4.8 | 11.3 | 0.00 | 0.00 | 0.00 | 45 | 1012.9 |
| 20260503233016 | 12 | 180 | 4.8 | 19.3 | 0.00 | 0.00 | 0.00 | 46 | 1012.9 |
| 20260503232516 | 13 | 225 | 8.0 | 20.9 | 0.00 | 0.00 | 0.00 | 43 | 1012.9 |
| 20260503232016 | 13 | 225 | 3.2 | 8.0 | 0.00 | 0.00 | 0.00 | 45 | 1013.0 |
| 20260503231515 | 13 | 203 | 6.4 | 12.9 | 0.00 | 0.00 | 0.00 | 42 | 1013.0 |
| 20260503231016 | 13 | 203 | 6.4 | 17.7 | 0.00 | 0.00 | 0.00 | 44 | 1012.9 |
| 20260503230516 | 13 | 225 | 6.4 | 30.6 | 0.00 | 0.00 | 0.00 | 43 | 1013.0 |
| 20260503230015 | 13 | 225 | 6.4 | 19.3 | 0.00 | 0.00 | 0.00 | 43 | 1013.0 |
| 20260503225515 | 13 | 225 | 6.4 | 20.9 | 0.00 | 0.00 | 0.00 | 43 | 1012.9 |
| 20260503225015 | 13 | 225 | 6.4 | 16.1 | 0.00 | 0.00 | 0.00 | 42 | 1013.0 |
| 20260503224536 | 13 | 225 | 8.0 | 16.1 | 0.00 | 0.00 | 0.00 | 42 | 1013.0 |
| 20260503224016 | 13 | 248 | 6.4 | 16.1 | 0.00 | 0.00 | 0.00 | 42 | 1013.0 |
| 20260503223536 | 13 | 203 | 6.4 | 19.3 | 0.00 | 0.00 | 0.00 | 43 | 1013.1 |
| 20260503223015 | 13 | 203 | 4.8 | 9.7 | 0.00 | 0.00 | 0.00 | 43 | 1013.2 |
| 20260503222516 | 13 | 180 | 3.2 | 9.7 | 0.00 | 0.00 | 0.00 | 44 | 1013.2 |
| 20260503222015 | 13 | 225 | 3.2 | 9.7 | 0.00 | 0.00 | 0.00 | 44 | 1013.2 |
| 20260503221515 | 13 | 203 | 4.8 | 16.1 | 0.00 | 0.00 | 0.00 | 43 | 1013.2 |
| 20260503221016 | 13 | 225 | 4.8 | 16.1 | 0.00 | 0.00 | 0.00 | 44 | 1013.2 |
| 20260503220516 | 13 | 203 | 4.8 | 17.7 | 0.00 | 0.00 | 0.00 | 42 | 1013.3 |
| 20260503220015 | 14 | 203 | 6.4 | 17.7 | 0.00 | 0.00 | 0.00 | 41 | 1013.2 |
| 20260503215515 | 13 | 225 | 4.8 | 11.3 | 0.00 | 0.00 | 0.00 | 43 | 1013.2 |
| 20260503215035 | 13 | 225 | 4.8 | 19.3 | 0.00 | 0.00 | 0.00 | 43 | 1013.3 |
| 20260503214515 | 13 | 248 | 6.4 | 17.7 | 0.00 | 0.00 | 0.00 | 43 | 1013.3 |
| 20260503214055 | 13 | 180 | 4.8 | 14.5 | 0.00 | 0.00 | 0.00 | 44 | 1013.4 |
| 20260503213515 | 13 | 203 | 6.4 | 17.7 | 0.00 | 0.00 | 0.00 | 41 | 1013.4 |
| 20260503213015 | 13 | 248 | 6.4 | 17.7 | 0.00 | 0.00 | 0.00 | 39 | 1013.3 |
| 20260503212615 | 13 | 203 | 4.8 | 12.9 | 0.00 | 0.00 | 0.00 | 43 | 1013.4 |
| 20260503212015 | 13 | 270 | 4.8 | 12.9 | 0.00 | 0.00 | 0.00 | 41 | 1013.4 |
| 20260503211515 | 14 | 225 | 6.4 | 12.9 | 0.00 | 0.00 | 0.00 | 41 | 1013.5 |
| 20260503211015 | 15 | 248 | 9.7 | 24.1 | 0.00 | 0.00 | 0.00 | 40 | 1013.5 |
| 20260503210658 | 15 | 270 | 8.0 | 19.3 | 0.00 | 0.00 | 0.00 | 42 | 1013.5 |
| 20260503210017 | 14 | 248 | 4.8 | 14.5 | 0.00 | 0.00 | 0.00 | 43 | 1013.5 |
| 20260503205537 | 14 | 270 | 9.7 | 29.0 | 0.00 | 0.00 | 0.00 | 39 | 1013.5 |
| 20260503205017 | 15 | 293 | 11.3 | 27.4 | 0.00 | 0.00 | 0.00 | 40 | 1013.4 |
| 20260503204517 | 14 | 248 | 6.4 | 22.5 | 0.00 | 0.00 | 0.00 | 43 | 1013.6 |
| 20260503204018 | 14 | 248 | 9.7 | 24.1 | 0.00 | 0.00 | 0.00 | 38 | 1013.5 |
| 20260503203517 | 15 | 225 | 6.4 | 19.3 | 0.00 | 0.00 | 0.00 | 40 | 1013.6 |
| 20260503203017 | 15 | 248 | 6.4 | 16.1 | 0.00 | 0.00 | 0.00 | 38 | 1013.6 |
| 20260503202557 | 15 | 225 | 6.4 | 20.9 | 0.00 | 0.00 | 0.00 | 41 | 1013.5 |
| 20260503202017 | 15 | 203 | 8.0 | 25.7 | 0.00 | 0.00 | 0.00 | 39 | 1013.7 |
| 20260503201517 | 15 | 270 | 6.4 | 16.1 | 0.00 | 0.00 | 0.00 | 39 | 1013.9 |
| 20260503201017 | 15 | 225 | 8.0 | 20.9 | 0.00 | 0.00 | 0.00 | 43 | 1013.8 |
| 20260503200517 | 13 | 203 | 4.8 | 12.9 | 0.00 | 0.00 | 0.00 | 44 | 1013.9 |
| 20260503200017 | 13 | 225 | 9.7 | 22.5 | 0.00 | 0.00 | 0.00 | 41 | 1014.0 |
| 20260503195517 | 14 | 225 | 9.7 | 30.6 | 0.00 | 0.00 | 0.00 | 40 | 1014.0 |
| 20260503195015 | 14 | 225 | 9.7 | 19.3 | 0.00 | 0.00 | 0.00 | 42 | 1014.2 |
| 20260503194517 | 14 | 203 | 8.0 | 22.5 | 0.00 | 0.00 | 0.00 | 42 | 1014.3 |
| 20260503194017 | 14 | 180 | 6.4 | 14.5 | 0.00 | 0.00 | 0.00 | 42 | 1014.4 |
| 20260503193517 | 13 | 203 | 6.4 | 16.1 | 0.00 | 0.00 | 0.00 | 41 | 1014.5 |
| 20260503193017 | 14 | 180 | 8.0 | 19.3 | 0.00 | 0.00 | 0.00 | 42 | 1014.6 |
| 20260503192557 | 14 | 248 | 6.4 | 14.5 | 0.00 | 0.00 | 0.00 | 43 | 1014.7 |
| 20260503192017 | 15 | 203 | 6.4 | 17.7 | 0.00 | 0.00 | 0.00 | 44 | 1014.9 |
| 20260503191517 | 15 | 248 | 4.8 | 12.9 | 0.00 | 0.00 | 0.00 | 42 | 1014.8 |
| 20260503191017 | 14 | 248 | 6.4 | 19.3 | 0.00 | 0.00 | 0.00 | 42 | 1015.0 |
| 20260503190557 | 14 | 248 | 3.2 | 11.3 | 0.00 | 0.00 | 0.00 | 39 | 1015.1 |
| 20260503190017 | 15 | 270 | 8.0 | 20.9 | 0.00 | 0.00 | 0.00 | 41 | 1015.1 |
| 20260503185517 | 14 | 203 | 6.4 | 17.7 | 0.00 | 0.00 | 0.00 | 41 | 1015.2 |
| 20260503185037 | 14 | 203 | 8.0 | 19.3 | 0.00 | 0.00 | 0.00 | 39 | 1015.4 |
| 20260503184537 | 15 | 270 | 6.4 | 14.5 | 0.00 | 0.00 | 0.00 | 40 | 1015.3 |
| 20260503184017 | 14 | 248 | 9.7 | 25.7 | 0.00 | 0.00 | 0.00 | 39 | 1015.4 |
| 20260503183517 | 14 | 225 | 6.4 | 17.7 | 0.00 | 0.00 | 0.00 | 45 | 1015.5 |
| 20260503183017 | 13 | 248 | 6.4 | 17.7 | 0.00 | 0.00 | 0.00 | 45 | 1015.4 |
| 20260503182517 | 13 | 225 | 9.7 | 32.2 | 0.00 | 0.00 | 0.00 | 42 | 1015.5 |
| 20260503182017 | 14 | 293 | 9.7 | 20.9 | 0.00 | 0.00 | 0.00 | 41 | 1015.5 |
| 20260503181517 | 14 | 248 | 11.3 | 25.7 | 0.00 | 0.00 | 0.00 | 39 | 1015.5 |
| 20260503181017 | 14 | 225 | 4.8 | 17.7 | 0.00 | 0.00 | 0.00 | 46 | 1015.6 |
| 20260503180517 | 14 | 293 | 11.3 | 32.2 | 0.00 | 0.00 | 0.00 | 41 | 1015.7 |
| 20260503180017 | 14 | 293 | 12.9 | 27.4 | 0.00 | 0.00 | 0.00 | 41 | 1015.8 |
| 20260503175517 | 13 | 248 | 9.7 | 20.9 | 0.00 | 0.00 | 0.00 | 42 | 1015.8 |
| 20260503175017 | 13 | 270 | 11.3 | 32.2 | 0.00 | 0.00 | 0.00 | 44 | 1015.9 |
| 20260503174517 | 13 | 248 | 8.0 | 19.3 | 0.00 | 0.00 | 0.00 | 45 | 1015.9 |
| 20260503174017 | 14 | 203 | 6.4 | 17.7 | 0.00 | 0.00 | 0.00 | 46 | 1016.1 |
| 20260503173517 | 13 | 225 | 9.7 | 22.5 | 0.00 | 0.00 | 0.00 | 41 | 1016.0 |
| 20260503173017 | 13 | 248 | 8.0 | 29.0 | 0.00 | 0.00 | 0.00 | 44 | 1016.2 |
| 20260503172517 | 13 | 270 | 6.4 | 20.9 | 0.00 | 0.00 | 0.00 | 49 | 1016.2 |
| 20260503172017 | 13 | 270 | 6.4 | 19.3 | 0.00 | 0.00 | 0.00 | 50 | 1016.3 |
| 20260503171517 | 13 | 203 | 6.4 | 20.9 | 0.00 | 0.00 | 0.00 | 45 | 1016.4 |
| 20260503171017 | 13 | 293 | 8.0 | 25.7 | 0.00 | 0.00 | 0.00 | 47 | 1016.6 |
| 20260503170517 | 13 | 248 | 6.4 | 14.5 | 0.00 | 0.00 | 0.00 | 51 | 1016.6 |
| 20260503150557 | 11 | 293 | 4.8 | 16.1 | 0.00 | 0.03 | 0.00 | 51 | 1017.5 |
| 20260503131037 | 6 | 180 | 4.8 | 9.7 | 0.00 | 0.03 | 0.00 | 64 | 1017.7 |
| 20260503130516 | 6 | 158 | 3.2 | 6.4 | 0.00 | 0.03 | 0.00 | 65 | 1017.8 |
| 20260503110516 | -1 | 0.0 | 3.2 | 0.00 | 0.03 | 0.00 | 89 | 1016.7 | |
| 20260503081516 | -1 | 0.0 | 0.0 | 0.00 | 0.03 | 0.00 | 91 | 1016.4 | |
| 20260503081016 | -1 | 0.0 | 0.0 | 0.00 | 0.03 | 0.00 | 91 | 1016.3 | |
| 20260503080516 | -1 | 0.0 | 0.0 | 0.00 | 0.03 | 0.00 | 91 | 1016.3 | |
| 20260503072516 | 0 | 0.0 | 0.0 | 0.00 | 0.03 | 0.00 | 90 | 1016.4 | |
| 20260503072056 | 0 | 0.0 | 0.0 | 0.00 | 0.03 | 0.00 | 90 | 1016.4 | |
| 20260503071516 | 0 | 0.0 | 0.0 | 0.00 | 0.03 | 0.00 | 89 | 1016.4 | |
| 20260503071016 | 0 | 0.0 | 0.0 | 0.00 | 0.03 | 0.00 | 88 | 1016.3 | |
| 20260503070516 | 0 | 0.0 | 0.0 | 0.00 | 0.03 | 0.00 | 89 | 1016.3 | |
| 20260503055016 | 1 | 0.0 | 3.2 | 0.00 | 0.03 | 0.00 | 84 | 1016.7 | |
| 20260503054516 | 1 | 0.0 | 3.2 | 0.00 | 0.03 | 0.00 | 84 | 1016.8 | |
| 20260503054016 | 1 | 0.0 | 0.0 | 0.00 | 0.03 | 0.00 | 83 | 1016.8 | |
| 20260503053516 | 1 | 0.0 | 0.0 | 0.00 | 0.03 | 0.00 | 82 | 1016.7 | |
| 20260503053016 | 1 | 0.0 | 0.0 | 0.00 | 0.03 | 0.00 | 81 | 1016.8 | |
| 20260503052516 | 1 | 0.0 | 1.6 | 0.00 | 0.03 | 0.00 | 80 | 1016.8 | |
| 20260503052016 | 1 | 0.0 | 0.0 | 0.00 | 0.03 | 0.00 | 80 | 1016.8 | |
| 20260503051516 | 2 | 0.0 | 0.0 | 0.00 | 0.03 | 0.00 | 80 | 1016.8 | |
| 20260503051015 | 2 | 0.0 | 3.2 | 0.00 | 0.03 | 0.00 | 79 | 1016.8 | |
| 20260503050516 | 2 | 0.0 | 3.2 | 0.00 | 0.03 | 0.00 | 79 | 1016.8 | |
| 20260503050016 | 2 | 0.0 | 3.2 | 0.00 | 0.03 | 0.00 | 79 | 1016.8 | |
| 20260503045516 | 2 | 0.0 | 3.2 | 0.00 | 0.03 | 0.00 | 79 | 1016.8 | |
| 20260503045016 | 2 | 0.0 | 1.6 | 0.00 | 0.03 | 0.00 | 80 | 1016.8 | |
| 20260503044516 | 2 | 0.0 | 3.2 | 0.00 | 0.03 | 0.00 | 80 | 1016.8 | |
| 20260503044016 | 2 | 0.0 | 3.2 | 0.00 | 0.03 | 0.00 | 80 | 1016.8 | |
| 20260503043515 | 2 | 0.0 | 0.0 | 0.00 | 0.03 | 0.00 | 81 | 1016.8 | |
| 20260503043015 | 2 | 0.0 | 0.0 | 0.00 | 0.03 | 0.00 | 80 | 1016.9 | |
| 20260503042516 | 2 | 0.0 | 0.0 | 0.00 | 0.03 | 0.00 | 80 | 1016.9 | |
| 20260503042016 | 2 | 0.0 | 3.2 | 0.00 | 0.03 | 0.00 | 80 | 1017.0 | |
| 20260503041515 | 2 | 0.0 | 3.2 | 0.00 | 0.03 | 0.00 | 80 | 1017.0 | |
| 20260503041016 | 2 | 0.0 | 3.2 | 0.00 | 0.03 | 0.00 | 79 | 1016.9 | |
| 20260503040515 | 2 | 0.0 | 3.2 | 0.00 | 0.03 | 0.00 | 78 | 1016.9 | |
| 20260503040016 | 2 | 0.0 | 3.2 | 0.00 | 0.03 | 0.03 | 79 | 1016.9 | |
| 20260503035556 | 2 | 0.0 | 3.2 | 0.00 | 0.03 | 0.03 | 79 | 1017.0 | |
| 20260503035016 | 2 | 0.0 | 3.2 | 0.00 | 0.03 | 0.03 | 78 | 1016.9 | |
| 20260503034516 | 2 | 0.0 | 3.2 | 0.00 | 0.03 | 0.03 | 79 | 1017.0 | |
| 20260503034016 | 2 | 0.0 | 3.2 | 0.00 | 0.03 | 0.03 | 80 | 1016.9 | |
| 20260503033556 | 2 | 0.0 | 3.2 | 0.00 | 0.03 | 0.03 | 79 | 1016.9 | |
| 20260503033016 | 2 | 0.0 | 3.2 | 0.00 | 0.03 | 0.03 | 80 | 1016.9 | |
| 20260503032516 | 2 | 0.0 | 3.2 | 0.00 | 0.03 | 0.03 | 79 | 1017.0 | |
| 20260503032016 | 2 | 0.0 | 1.6 | 0.00 | 0.03 | 0.03 | 79 | 1017.0 | |
| 20260503031516 | 2 | 0.0 | 3.2 | 0.00 | 0.03 | 0.03 | 79 | 1017.0 | |
| 20260503031036 | 2 | 0.0 | 3.2 | 0.00 | 0.03 | 0.03 | 81 | 1017.0 | |
| 20260503030516 | 2 | 0.0 | 0.0 | 0.00 | 0.03 | 0.03 | 80 | 1017.0 | |
| 20260503030016 | 2 | 0.0 | 3.2 | 0.00 | 0.03 | 0.03 | 81 | 1017.0 | |
| 20260503025516 | 2 | 0.0 | 3.2 | 0.00 | 0.03 | 0.03 | 81 | 1017.1 | |
| 20260503025016 | 2 | 0.0 | 0.0 | 0.00 | 0.03 | 0.03 | 80 | 1017.1 | |
| 20260503024516 | 2 | 0.0 | 1.6 | 0.00 | 0.03 | 0.03 | 80 | 1017.2 | |
| 20260503024016 | 2 | 0.0 | 0.0 | 0.00 | 0.03 | 0.03 | 79 | 1017.2 | |
| 20260503023516 | 2 | 0.0 | 0.0 | 0.00 | 0.03 | 0.03 | 79 | 1017.2 | |
| 20260503023036 | 2 | 0.0 | 3.2 | 0.00 | 0.03 | 0.03 | 79 | 1017.3 | |
| 20260503022516 | 2 | 0.0 | 1.6 | 0.00 | 0.03 | 0.03 | 78 | 1017.2 | |
| 20260503022016 | 2 | 0.0 | 3.2 | 0.00 | 0.03 | 0.03 | 78 | 1017.2 | |
| 20260503021516 | 2 | 0.0 | 1.6 | 0.00 | 0.03 | 0.03 | 78 | 1017.3 | |
| 20260503021015 | 2 | 0.0 | 0.0 | 0.00 | 0.03 | 0.03 | 77 | 1017.2 | |
| 20260503020536 | 2 | 0.0 | 3.2 | 0.00 | 0.03 | 0.03 | 77 | 1017.2 | |
| 20260503020016 | 2 | 0.0 | 3.2 | 0.00 | 0.03 | 0.03 | 77 | 1017.2 | |
| 20260503015515 | 2 | 0.0 | 3.2 | 0.00 | 0.03 | 0.03 | 78 | 1017.2 | |
| 20260503015016 | 2 | 0.0 | 0.0 | 0.00 | 0.03 | 0.03 | 76 | 1017.1 | |
| 20260503014516 | 2 | 0.0 | 0.0 | 0.00 | 0.03 | 0.03 | 78 | 1017.2 | |
| 20260503014016 | 2 | 0.0 | 0.0 | 0.00 | 0.03 | 0.03 | 77 | 1017.2 | |
| 20260503013516 | 2 | 0.0 | 0.0 | 0.00 | 0.03 | 0.03 | 76 | 1017.2 | |
| 20260503013016 | 2 | 0.0 | 0.0 | 0.00 | 0.03 | 0.03 | 76 | 1017.2 | |
| 20260503012535 | 3 | 0.0 | 3.2 | 0.00 | 0.03 | 0.03 | 76 | 1017.2 | |
| 20260503012036 | 3 | 0.0 | 0.0 | 0.00 | 0.03 | 0.03 | 76 | 1017.2 | |
| 20260503011516 | 3 | 0.0 | 1.6 | 0.00 | 0.03 | 0.03 | 76 | 1017.2 | |
| 20260503011016 | 3 | 0.0 | 3.2 | 0.00 | 0.03 | 0.03 | 76 | 1017.2 | |
| 20260503010516 | 3 | 0.0 | 1.6 | 0.00 | 0.03 | 0.03 | 73 | 1017.2 | |
| 20260503010016 | 3 | 0.0 | 0.0 | 0.00 | 0.03 | 0.03 | 73 | 1017.2 | |
| 20260503005516 | 3 | 0.0 | 0.0 | 0.00 | 0.03 | 0.03 | 73 | 1017.2 | |
| 20260503005015 | 3 | 0.0 | 0.0 | 0.00 | 0.03 | 0.03 | 71 | 1017.2 | |
| 20260503004516 | 3 | 0.0 | 1.6 | 0.00 | 0.03 | 0.03 | 71 | 1017.2 | |
| 20260503004016 | 3 | 0.0 | 3.2 | 0.00 | 0.03 | 0.03 | 69 | 1017.1 | |
| 20260503003536 | 4 | 0.0 | 0.0 | 0.00 | 0.03 | 0.03 | 70 | 1017.2 | |
| 20260503003016 | 4 | 0.0 | 0.0 | 0.00 | 0.03 | 0.03 | 68 | 1017.1 | |
| 20260503002515 | 4 | 0.0 | 0.0 | 0.00 | 0.03 | 0.03 | 66 | 1017.1 | |
| 20260503002015 | 4 | 0.0 | 0.0 | 0.00 | 0.03 | 0.03 | 65 | 1017.1 |